Location: *
(52.2090°N, 4.1550°W)
Time: 20:42:40
(UTC+00:00)

USA 229 - Pass Details

Date: 19 July 2019
Orbit: 1006 x 1206 km, 63.4° (Epoch: 22 August)

Event Time Altitude Azimuth Distance (km) Brightness Sun altitude
Rises 22:35:13 0° 222° (SW) 3,752 6.3 -13.3°
Reaches altitude 10° 22:37:46 10° 222° (SW) 2,820 5.7 -13.5°
Maximum altitude 22:44:26 88° 135° (SE) 1,067 3.7 -13.9°
Drops below altitude 10° 22:51:27 10° 46° (NE) 2,963 6.3 -14.3°
Sets 22:54:12 0° 47° (NE) 3,954 7.0 -14.5°
